Current weather by "City, St" or "zip code"  
 
Advertise Here

Current Conditions: Dunkirk, Chautauqua County / Dunkirk Airport, NY

Fair


63.0 F

Last Updated on Sep 16 2021, 11:53 pm EDT
Humidity: 90%
Wind Speed: N 0.0 mph
Barometer 30.17 in
Dewpoint: 60.1 F
Visibility: 10.00 mi
Precip: --
Heat Index: NA
Wind Chill: NA
Current conditions at:

Dunkirk, Chautauqua County / Dunkirk Airport, NY (KDKK)

Lat: 42.49306 Lon: 79.27583

Local Radar Image active severe weather and emergency alerts image image weather storm and storm spotter reports image weather observation monitoring service image
Local
Radar
Active
Alerts
Storm Reports Obs
Monitoring

Sign-up For Email & Text Message Weather Alert Notification Services



Advertise Here

Observation History for Dunkirk, Chautauqua County / Dunkirk Airport, NY


Time Wind
(mph)
Vis
(mi)
Weather Precip (in) Temperature (F) Relative
Humidity
Wind
Chill
(F)
Heat
Index
(F)
Pressure
Air Dwpt altimeter
(in)
sea level
(mb)
Rmks
11:53 pm EDT N 0.0 10.00 Fair -- 63.0 60.1 90% NA NA 30.17 1021.4
10:53 pm EDT E 4.6 10.00 Fair -- 63.0 60.1 90% 64 NA 30.18 1021.7
9:53 pm EDT E 6.9 10.00 Fair -- 66.0 60.1 81% NA NA 30.18 1021.8
8:53 pm EDT SE 4.6 10.00 Fair Trace 67.0 60.1 79% NA NA 30.18 1021.8
7:53 pm EDT S 3.5 10.00 Light Rain Trace 65.0 61.0 87% NA NA 30.17 1021.6
6:53 pm EDT NE 5.8 10.00 Fair -- 73.0 61.0 66% NA NA 30.16 1021.3
5:53 pm EDT NE 10.4 10.00 Fair -- 75.0 59.0 58% NA NA 30.16 1021.3
4:53 pm EDT N 12.7 10.00 Fair -- 76.0 57.0 52% NA NA 30.17 1021.4
3:53 pm EDT NE 15.0 10.00 Fair -- 76.0 55.0 48% NA NA 30.17 1021.6
2:53 pm EDT N 15.0 10.00 Fair -- 77.0 57.9 52% NA NA 30.19 1022.0
1:53 pm EDT NE 8.1 10.00 Fair -- 76.0 61.0 60% NA NA 30.21 1022.6
12:53 pm EDT N 9.2 10.00 Fair -- 76.0 57.0 52% NA NA 30.21 1022.7
11:53 am EDT E 10.4 10.00 Fair -- 74.0 55.9 54% NA NA 30.21 1022.9
10:53 am EDT 4.6 10.00 Fair -- 72.0 57.0 59% NA NA 30.22 1023.1
9:53 am EDT E 6.9 10.00 Fair -- 68.0 57.0 68% NA NA 30.22 1023.1
8:53 am EDT E 5.8 10.00 Fair -- 65.0 57.9 78% NA NA 30.21 1022.8
7:53 am EDT N 0.0 10.00 Fair -- 55.0 53.1 93% NA NA 30.20 1022.6
6:53 am EDT SE 3.5 9.00 NULL -- 51.0 48.9 92% NA NA 30.19 1022.2
5:53 am EDT N 0.0 7.00 NULL -- 53.0 51.1 93% NA NA 30.17 1021.6
4:53 am EDT N 0.0 10.00 A Few Clouds -- 55.0 53.1 93% NA NA 30.15 1020.7
3:53 am EDT N 0.0 10.00 Mostly Cloudy -- 53.0 52.0 96% NA NA 30.14 1020.5
2:53 am EDT N 0.0 10.00 Fair -- 55.0 53.1 93% NA NA 30.13 1020.3
1:53 am EDT N 0.0 5.00 Fog/Mist -- 55.0 53.1 93% NA NA 30.13 1020.1
12:53 am EDT N 0.0 10.00 Fair -- 56.0 54.0 93% NA NA 30.13 1020.1

Regional Weather Observation


Jamestown, Chautauqua County/Jamestown Airport, NY (KJHW)

Fair
62.0 F

Buffalo, Greater Buffalo International Airport, NY (KBUF)

Fair
64.0 F

Erie, Erie International Airport, PA (KERI)

Fair
69.0 F

Niagara Falls, Niagara Falls International Airport, NY (KIAG)

Fair
61.0 F

Cattaraugus County-Olean Airport, NY (KOLE)

Mostly Cloudy
59.0 F

Genesee County Airport, NY (KGVQ)

Fair
60.0 F
Advertise Here


Advertise Here